DW8769 Weather Reports


time (UTC)temp
C
wind
direction
speed
KPH
gust
KPH
rain 1hr
cm
rain 24hr
cm
rain mn
cm
humidity
%
barometer
mb
20260504060206 16 352 3.2 6.4 0.00 0.00 0.00 87 1010.9
20260504060106 16 270 3.2 6.4 0.00 0.00 0.00 87 1010.9
20260504050705 16 274 0.0 3.2 0.00 0.00 0.00 88 1010.5
20260504050608 16 274 1.6 3.2 0.00 0.00 0.00 88 1010.5
20260504050507 16 274 1.6 4.8 0.00 0.00 0.00 88 1010.5
20260504050304 16 274 1.6 4.8 0.00 0.00 0.00 88 1010.5
20260504050204 16 274 1.6 4.8 0.00 0.00 0.00 88 1010.6
20260504050105 16 274 1.6 4.8 0.00 0.00 0.00 88 1010.5
20260504045906 16 274 1.6 4.8 0.00 0.00 0.00 88 1010.5
20260504045806 16 274 1.6 4.8 0.00 0.00 0.00 88 1010.5
20260504045506 16 274 1.6 4.8 0.00 0.00 0.00 88 1010.5
20260504045408 16 274 1.6 4.8 0.00 0.00 0.00 88 1010.5
20260504045307 16 274 1.6 3.2 0.00 0.00 0.00 88 1010.5
20260504045205 16 274 1.6 3.2 0.00 0.00 0.00 88 1010.5
20260504045106 16 274 1.6 3.2 0.00 0.00 0.00 88 1010.5
20260504045008 16 274 1.6 3.2 0.00 0.00 0.00 88 1010.5
20260504044705 16 275 1.6 4.8 0.00 0.00 0.00 88 1010.6
20260504044606 16 313 1.6 4.8 0.00 0.00 0.00 88 1010.6
20260504044406 16 276 0.0 4.8 0.00 0.00 0.00 88 1010.6
20260504044305 16 276 0.0 4.8 0.00 0.00 0.00 88 1010.6
20260504044206 16 276 0.0 4.8 0.00 0.00 0.00 88 1010.6
20260504044007 16 335 0.0 0.0 0.00 0.00 0.00 88 1010.6
20260504043906 16 335 0.0 4.8 0.00 0.00 0.00 88 1010.6
20260504043807 16 335 0.0 4.8 0.00 0.00 0.00 88 1010.6
20260504043706 16 335 0.0 4.8 0.00 0.00 0.00 88 1010.6
20260504043606 16 335 0.0 4.8 0.00 0.00 0.00 88 1010.6
20260504043506 16 335 0.0 4.8 0.00 0.00 0.00 88 1010.5
20260504043406 16 335 0.0 4.8 0.00 0.00 0.00 88 1010.5
20260504043306 16 335 0.0 4.8 0.00 0.00 0.00 88 1010.5
20260504043205 16 335 0.0 4.8 0.00 0.00 0.00 88 1010.6
20260504043105 16 335 0.0 4.8 0.00 0.00 0.00 88 1010.6
20260504043007 16 335 0.0 3.2 0.00 0.00 0.00 88 1010.6
20260504042908 16 335 0.0 3.2 0.00 0.00 0.00 88 1010.6
20260504042805 16 335 0.0 3.2 0.00 0.00 0.00 88 1010.6
20260504042705 16 335 1.6 3.2 0.00 0.00 0.00 88 1010.6
20260504042606 16 335 1.6 3.2 0.00 0.00 0.00 88 1010.6
20260504042508 16 335 1.6 3.2 0.00 0.00 0.00 88 1010.7
20260504042306 16 335 1.6 3.2 0.00 0.00 0.00 88 1010.6
20260504042206 16 275 1.6 3.2 0.00 0.00 0.00 88 1010.7
20260504042106 16 275 1.6 3.2 0.00 0.00 0.00 88 1010.7
20260504041805 16 275 1.6 3.2 0.00 0.00 0.00 88 1010.7
20260504041706 16 275 1.6 4.8 0.00 0.00 0.00 88 1010.7
20260504041606 16 275 1.6 4.8 0.00 0.00 0.00 88 1010.7
20260504041507 16 275 1.6 4.8 0.00 0.00 0.00 88 1010.7
20260504041405 16 275 1.6 4.8 0.00 0.00 0.00 87 1010.7
20260504041306 16 275 3.2 4.8 0.00 0.00 0.00 88 1010.7
20260504041206 16 275 3.2 4.8 0.00 0.00 0.00 88 1010.6
20260504041107 16 275 3.2 4.8 0.00 0.00 0.00 88 1010.6
20260504040906 16 330 3.2 8.0 0.00 0.00 0.00 87 1010.7
20260504040707 16 359 3.2 8.0 0.00 0.00 0.00 88 1010.7
20260504040605 16 242 3.2 8.0 0.00 0.00 0.00 87 1010.7
20260504040507 16 260 3.2 8.0 0.00 0.00 0.00 87 1010.7
20260504040406 16 256 3.2 8.0 0.00 0.00 0.00 87 1010.7
20260504040206 16 301 3.2 8.0 0.00 0.00 0.00 87 1010.7
20260504040106 17 330 3.2 8.0 0.00 0.00 0.00 87 1010.8
20260504040008 17 296 3.2 8.0 0.00 0.00 0.00 87 1010.8
20260504035906 17 330 1.6 8.0 0.00 0.00 0.00 87 1010.7
20260504035805 17 286 1.6 8.0 0.00 0.00 0.00 87 1010.9
20260504035706 17 330 1.6 8.0 0.00 0.00 0.00 87 1010.9
20260504035404 17 251 1.6 4.8 0.00 0.00 0.00 87 1010.8
20260504035305 17 251 1.6 4.8 0.00 0.00 0.00 87 1010.8
20260504035207 17 316 1.6 4.8 0.00 0.00 0.00 87 1010.9
20260504035105 17 316 0.0 4.8 0.00 0.00 0.00 87 1010.8
20260504035007 17 316 0.0 3.2 0.00 0.00 0.00 87 1010.9
20260504034904 17 316 1.6 3.2 0.00 0.00 0.00 87 1010.9
20260504034706 17 316 1.6 3.2 0.00 0.00 0.00 87 1011.0
20260504034604 17 256 1.6 3.2 0.00 0.00 0.00 87 1011.1
20260504034507 17 342 1.6 3.2 0.00 0.00 0.00 87 1011.0
20260504034405 17 343 1.6 3.2 0.00 0.00 0.00 87 1011.0
20260504034305 17 342 1.6 3.2 0.00 0.00 0.00 87 1011.0
20260504034205 17 342 1.6 3.2 0.00 0.00 0.00 87 1011.0
20260504034106 17 342 1.6 4.8 0.00 0.00 0.00 87 1011.1
20260504034009 17 342 1.6 4.8 0.00 0.00 0.00 87 1011.2
20260504033904 17 343 1.6 4.8 0.00 0.00 0.00 87 1011.2
20260504033806 17 342 1.6 4.8 0.00 0.00 0.00 87 1011.2
20260504033704 17 342 1.6 4.8 0.00 0.00 0.00 87 1011.2
20260504033605 17 342 1.6 4.8 0.00 0.00 0.00 87 1011.2
20260504033507 17 342 1.6 4.8 0.00 0.00 0.00 87 1011.2
20260504033404 17 342 1.6 4.8 0.00 0.00 0.00 87 1011.2
20260504033307 17 342 1.6 4.8 0.00 0.00 0.00 87 1011.2
20260504033207 17 229 1.6 4.8 0.00 0.00 0.00 87 1011.3
20260504033106 17 229 1.6 4.8 0.00 0.00 0.00 87 1011.3
20260504032906 17 229 3.2 4.8 0.00 0.00 0.00 86 1011.3
20260504032804 17 229 3.2 4.8 0.00 0.00 0.00 86 1011.3
20260504032706 17 229 3.2 4.8 0.00 0.00 0.00 86 1011.3
20260504032604 17 229 1.6 4.8 0.00 0.00 0.00 86 1011.4
20260504032404 17 229 1.6 4.8 0.00 0.00 0.00 86 1011.4
20260504032304 17 229 1.6 4.8 0.00 0.00 0.00 86 1011.4
20260504032204 17 229 1.6 4.8 0.00 0.00 0.00 86 1011.4
20260504032104 17 229 1.6 4.8 0.00 0.00 0.00 86 1011.4
20260504032006 17 229 1.6 4.8 0.00 0.00 0.00 86 1011.4
20260504031904 17 229 0.0 4.8 0.00 0.00 0.00 86 1011.4
20260504031805 17 345 0.0 3.2 0.00 0.00 0.00 86 1011.5
20260504031705 17 345 0.0 3.2 0.00 0.00 0.00 86 1011.5
20260504031604 17 345 0.0 3.2 0.00 0.00 0.00 86 1011.5
20260504031506 17 345 0.0 3.2 0.00 0.00 0.00 86 1011.5
20260504031405 17 345 0.0 3.2 0.00 0.00 0.00 86 1011.5
20260504031305 17 345 1.6 3.2 0.00 0.00 0.00 86 1011.5
20260504031204 17 345 1.6 3.2 0.00 0.00 0.00 86 1011.5
20260504031008 17 345 1.6 6.4 0.00 0.00 0.00 86 1011.5
20260504030904 17 345 1.6 6.4 0.00 0.00 0.00 85 1011.5
20260504030806 17 345 1.6 6.4 0.00 0.00 0.00 85 1011.6
20260504030705 17 345 1.6 6.4 0.00 0.00 0.00 85 1011.6
20260504030604 17 345 1.6 6.4 0.00 0.00 0.00 85 1011.5
20260504030506 17 345 1.6 6.4 0.00 0.00 0.00 85 1011.6
20260504030304 17 345 1.6 6.4 0.00 0.00 0.00 85 1011.7
20260504030204 17 345 1.6 6.4 0.00 0.00 0.00 85 1011.7
20260504030104 17 347 1.6 6.4 0.00 0.00 0.00 85 1011.7
20260504030010 17 347 1.6 6.4 0.00 0.00 0.00 85 1011.7
20260504025905 17 273 1.6 6.4 0.00 0.00 0.00 85 1011.7
20260504025806 17 308 1.6 6.4 0.00 0.00 0.00 85 1011.7
20260504025705 17 330 1.6 4.8 0.00 0.00 0.00 85 1011.7
20260504025605 17 330 1.6 4.8 0.00 0.00 0.00 85 1011.7
20260504025506 17 330 1.6 4.8 0.00 0.00 0.00 85 1011.7
20260504025404 17 330 1.6 4.8 0.00 0.00 0.00 85 1011.7
20260504025305 17 330 1.6 4.8 0.00 0.00 0.00 85 1011.7
20260504025204 17 330 1.6 4.8 0.00 0.00 0.00 85 1011.8
20260504025104 17 330 1.6 4.8 0.00 0.00 0.00 85 1011.7
20260504025007 17 330 1.6 3.2 0.00 0.00 0.00 85 1011.7
20260504024907 17 330 1.6 3.2 0.00 0.00 0.00 85 1011.7
20260504024804 17 330 1.6 3.2 0.00 0.00 0.00 85 1011.7
20260504024704 17 330 1.6 3.2 0.00 0.00 0.00 85 1011.7
20260504024604 17 330 1.6 3.2 0.00 0.00 0.00 85 1011.7
20260504024506 17 330 1.6 4.8 0.00 0.00 0.00 85 1011.7
20260504024305 17 330 1.6 4.8 0.00 0.00 0.00 85 1011.7
20260504024205 17 330 1.6 4.8 0.00 0.00 0.00 85 1011.6
20260504024104 17 330 1.6 4.8 0.00 0.00 0.00 85 1011.7
20260504024008 17 330 1.6 4.8 0.00 0.00 0.00 85 1011.7
20260504023903 17 330 0.0 4.8 0.00 0.00 0.00 85 1011.7
20260504023705 17 330 0.0 4.8 0.00 0.00 0.00 85 1011.7
20260504023604 17 330 0.0 4.8 0.00 0.00 0.00 85 1011.7
20260504023506 17 330 0.0 1.6 0.00 0.00 0.00 85 1011.7
20260504023304 17 330 0.0 0.0 0.00 0.00 0.00 85 1011.6
20260504023105 17 330 0.0 0.0 0.00 0.00 0.00 85 1011.6
20260504023006 17 330 0.0 0.0 0.00 0.00 0.00 85 1011.6
20260504022904 17 330 0.0 0.0 0.00 0.00 0.00 85 1011.6
20260504022804 17 330 0.0 0.0 0.00 0.00 0.00 85 1011.6
20260504022705 17 330 0.0 0.0 0.00 0.00 0.00 85 1011.6
20260504022604 17 330 0.0 0.0 0.00 0.00 0.00 85 1011.6
20260504022507 17 330 0.0 0.0 0.00 0.00 0.00 85 1011.6
20260504022405 17 330 0.0 1.6 0.00 0.00 0.00 85 1011.6
20260504022307 17 330 0.0 1.6 0.00 0.00 0.00 85 1011.6
20260504022203 17 330 0.0 1.6 0.00 0.00 0.00 85 1011.6
20260504022007 17 330 1.6 3.2 0.00 0.00 0.00 85 1011.6
20260504021905 17 330 1.6 3.2 0.00 0.00 0.00 85 1011.6
20260504021804 17 330 1.6 3.2 0.00 0.00 0.00 85 1011.6
20260504021704 17 330 1.6 3.2 0.00 0.00 0.00 84 1011.6
20260504021605 17 330 1.6 3.2 0.00 0.00 0.00 85 1011.6
20260504021506 17 330 1.6 4.8 0.00 0.00 0.00 84 1011.6
20260504021404 17 330 1.6 4.8 0.00 0.00 0.00 84 1011.6
20260504021305 17 330 1.6 4.8 0.00 0.00 0.00 84 1011.6
20260504021106 17 330 1.6 4.8 0.00 0.00 0.00 84 1011.6
20260504021007 17 330 1.6 4.8 0.00 0.00 0.00 84 1011.6
20260504020805 17 330 1.6 4.8 0.00 0.00 0.00 84 1011.6
20260504020705 17 330 1.6 4.8 0.00 0.00 0.00 84 1011.6
20260504020605 17 330 1.6 4.8 0.00 0.00 0.00 84 1011.6
20260504020506 17 330 1.6 4.8 0.00 0.00 0.00 84 1011.6
20260504020404 17 330 1.6 4.8 0.00 0.00 0.00 84 1011.6
20260504020205 17 330 1.6 4.8 0.00 0.00 0.00 84 1011.6
20260504020013 17 330 1.6 4.8 0.00 0.00 0.00 84 1011.6
20260504015905 17 330 1.6 4.8 0.00 0.00 0.00 84 1011.6
20260504015806 17 330 1.6 4.8 0.00 0.00 0.00 84 1011.6
20260504015706 17 330 1.6 4.8 0.00 0.00 0.00 84 1011.6
20260504015605 17 330 1.6 4.8 0.00 0.00 0.00 84 1011.6
20260504015509 17 330 1.6 4.8 0.00 0.00 0.00 84 1011.6
20260504015406 17 330 1.6 4.8 0.00 0.00 0.00 84 1011.6
20260504015305 17 330 1.6 4.8 0.00 0.00 0.00 84 1011.6
20260504015207 17 330 1.6 4.8 0.00 0.00 0.00 84 1011.6
20260504015105 17 330 1.6 4.8 0.00 0.00 0.00 84 1011.6
20260504014905 17 330 1.6 6.4 0.00 0.00 0.00 84 1011.7
20260504014805 17 330 3.2 6.4 0.00 0.00 0.00 84 1011.7
20260504014705 17 330 3.2 6.4 0.00 0.00 0.00 84 1011.6
20260504014606 17 330 1.6 6.4 0.00 0.00 0.00 84 1011.7
20260504014507 17 330 1.6 6.4 0.00 0.00 0.00 84 1011.6
20260504014406 17 330 1.6 6.4 0.00 0.00 0.00 84 1011.6
20260504014204 17 330 1.6 6.4 0.00 0.00 0.00 84 1011.6
20260504014106 17 312 1.6 6.4 0.00 0.00 0.00 84 1011.6
20260504014009 17 241 1.6 6.4 0.00 0.00 0.00 83 1011.6
20260504013805 17 335 1.6 4.8 0.00 0.00 0.00 84 1011.7
20260504013605 17 293 1.6 4.8 0.00 0.00 0.00 84 1011.5
20260504013507 17 293 1.6 4.8 0.00 0.00 0.00 84 1011.6
20260504013405 17 325 1.6 4.8 0.00 0.00 0.00 84 1011.6
20260504013305 17 325 1.6 4.8 0.00 0.00 0.00 84 1011.5
20260504013207 17 325 1.6 4.8 0.00 0.00 0.00 84 1011.5
20260504013105 17 325 1.6 4.8 0.00 0.00 0.00 84 1011.5
20260504013008 17 325 1.6 4.8 0.00 0.00 0.00 84 1011.5
20260504012905 17 325 1.6 4.8 0.00 0.00 0.00 84 1011.5
20260504012506 17 288 1.6 4.8 0.00 0.00 0.00 84 1011.5
20260504012405 17 247 1.6 4.8 0.00 0.00 0.00 84 1011.6
20260504012307 17 247 1.6 4.8 0.00 0.00 0.00 84 1011.6
20260504012205 17 247 1.6 4.8 0.00 0.00 0.00 84 1011.6
20260504012007 17 247 1.6 4.8 0.00 0.00 0.00 84 1011.6
20260504011906 17 247 1.6 4.8 0.00 0.00 0.00 84 1011.6
20260504011806 17 247 3.2 4.8 0.00 0.00 0.00 84 1011.6
20260504011707 17 258 3.2 4.8 0.00 0.00 0.00 84 1011.5
20260504011606 17 267 3.2 4.8 0.00 0.00 0.00 84 1011.5
20260504011507 17 276 3.2 4.8 0.00 0.00 0.00 84 1011.6
20260504011407 17 59 3.2 4.8 0.00 0.00 0.00 84 1011.6
20260504011305 17 59 3.2 4.8 0.00 0.00 0.00 84 1011.6
20260504011205 17 59 3.2 4.8 0.00 0.00 0.00 84 1011.6
20260504011105 17 59 1.6 4.8 0.00 0.00 0.00 84 1011.5
20260504011007 17 59 1.6 4.8 0.00 0.00 0.00 84 1011.5
20260504010806 17 59 1.6 4.8 0.00 0.00 0.00 84 1011.5
20260504010705 17 59 1.6 4.8 0.00 0.00 0.00 84 1011.5
20260504010605 17 59 1.6 4.8 0.00 0.00 0.00 84 1011.5
20260504010507 17 59 0.0 4.8 0.00 0.00 0.00 84 1011.5
20260504010405 17 59 0.0 3.2 0.00 0.00 0.00 84 1011.4
20260504010305 17 59 0.0 0.0 0.00 0.00 0.00 84 1011.4
20260504010206 17 59 0.0 0.0 0.00 0.00 0.00 84 1011.4
20260504010105 17 59 0.0 0.0 0.00 0.00 0.00 84 1011.4
20260504010035 17 59 0.0 0.0 0.00 0.00 0.00 84 1011.5
20260504005905 17 59 0.0 0.0 0.00 0.00 0.00 84 1011.4
20260504005704 17 59 0.0 0.0 0.00 0.00 0.00 84 1011.5
20260504005605 17 59 0.0 0.0 0.00 0.00 0.00 84 1011.4
20260504005507 17 59 0.0 0.0 0.00 0.00 0.00 84 1011.4
20260504005404 17 59 0.0 0.0 0.00 0.00 0.00 84 1011.4
20260504005203 17 59 0.0 0.0 0.00 0.00 0.00 84 1011.4
20260504005105 17 59 0.0 0.0 0.00 0.00 0.00 84 1011.4
20260504004804 17 59 0.0 1.6 0.00 0.00 0.00 84 1011.5
20260504004704 17 59 1.6 1.6 0.00 0.00 0.00 84 1011.4
20260504004506 17 59 1.6 4.8 0.00 0.00 0.00 84 1011.5
20260504004404 17 59 1.6 4.8 0.00 0.00 0.00 84 1011.5
20260504004204 17 59 1.6 4.8 0.00 0.00 0.00 84 1011.5
20260504003905 17 59 1.6 4.8 0.00 0.00 0.00 84 1011.4
20260504003804 17 59 0.0 4.8 0.00 0.00 0.00 84 1011.4
20260504003704 17 59 0.0 4.8 0.00 0.00 0.00 84 1011.5
20260504003506 17 59 0.0 0.0 0.00 0.00 0.00 84 1011.5
20260504003404 17 59 0.0 0.0 0.00 0.00 0.00 84 1011.5
20260504003305 17 181 0.0 0.0 0.00 0.00 0.00 84 1011.5
20260504003203 17 181 0.0 0.0 0.00 0.00 0.00 84 1011.5
20260504003104 17 181 0.0 0.0 0.00 0.00 0.00 84 1011.6
20260504003007 17 181 0.0 0.0 0.00 0.00 0.00 84 1011.6
20260504002903 17 181 0.0 0.0 0.00 0.00 0.00 84 1011.6
20260504002805 17 181 0.0 0.0 0.00 0.00 0.00 84 1011.5
20260504002704 17 181 0.0 0.0 0.00 0.00 0.00 84 1011.7
20260504002606 17 181 0.0 0.0 0.00 0.00 0.00 84 1011.6
20260504002505 17 181 0.0 0.0 0.00 0.00 0.00 84 1011.6
20260504002404 17 181 0.0 0.0 0.00 0.00 0.00 84 1011.7
20260504002304 17 181 0.0 0.0 0.00 0.00 0.00 84 1011.6
20260504002206 17 181 0.0 0.0 0.00 0.00 0.00 84 1011.6
20260504002104 17 181 0.0 0.0 0.00 0.00 0.00 84 1011.7
20260504002006 17 181 0.0 0.0 0.00 0.00 0.00 84 1011.7
20260504001905 17 181 0.0 0.0 0.00 0.00 0.00 84 1011.7
20260504001805 17 181 0.0 0.0 0.00 0.00 0.00 83 1011.7
20260504001606 17 181 0.0 0.0 0.00 0.00 0.00 83 1011.7
20260504001507 17 181 0.0 0.0 0.00 0.00 0.00 83 1011.8
20260504001405 17 181 0.0 0.0 0.00 0.00 0.00 83 1011.8
20260504001306 17 181 0.0 0.0 0.00 0.00 0.00 83 1011.8
20260504001204 17 181 0.0 0.0 0.00 0.00 0.00 83 1011.9
20260504001104 17 181 0.0 0.0 0.00 0.00 0.00 83 1011.9
20260504001006 17 181 0.0 0.0 0.00 0.00 0.00 83 1011.9
20260504000805 17 181 0.0 0.0 0.00 0.00 0.00 83 1012.0
20260504000704 17 181 0.0 0.0 0.00 0.00 0.00 83 1011.9
20260504000506 17 181 0.0 0.0 0.00 0.00 0.00 83 1011.9
20260504000405 17 141 0.0 3.2 0.00 0.00 0.00 83 1011.9
20260504000204 17 141 0.0 3.2 0.00 0.00 0.00 83 1011.9
20260504000105 17 141 0.0 3.2 0.00 0.00 0.00 83 1011.9
20260503235906 17 141 0.0 3.2 0.00 0.00 0.00 83 1011.9
20260503235805 17 141 0.0 3.2 0.00 0.00 0.00 83 1012.0
20260503235704 17 114 0.0 3.2 0.00 0.00 0.00 83 1012.0
20260503235507 17 114 0.0 3.2 0.00 0.00 0.00 83 1012.0
20260503235206 17 325 0.0 3.2 0.00 0.00 0.00 83 1012.1
20260503235008 17 325 1.6 3.2 0.00 0.00 0.00 83 1012.0
20260503234904 17 325 1.6 3.2 0.00 0.00 0.00 83 1012.1
20260503234805 17 325 0.0 3.2 0.00 0.00 0.00 83 1012.2
20260503234704 17 325 0.0 3.2 0.00 0.00 0.00 83 1012.1
20260503234604 17 325 0.0 3.2 0.00 0.00 0.00 83 1012.2
20260503234507 17 325 0.0 3.2 0.00 0.00 0.00 83 1012.1
20260503234404 17 325 0.0 3.2 0.00 0.00 0.00 83 1012.1
20260503234305 17 325 0.0 3.2 0.00 0.00 0.00 83 1012.1
20260503234203 17 325 0.0 3.2 0.00 0.00 0.00 83 1012.1
20260503234101 17 325 0.0 3.2 0.00 0.00 0.00 83 1012.1
20260503233859 17 325 0.0 0.0 0.00 0.00 0.00 83 1012.1
20260503233800 17 325 0.0 0.0 0.00 0.00 0.00 83 1012.2
20260503233701 17 325 0.0 0.0 0.00 0.00 0.00 83 1012.3
20260503233601 17 325 0.0 0.0 0.00 0.00 0.00 83 1012.2
20260503233502 17 325 0.0 0.0 0.00 0.00 0.00 83 1012.2
20260503233403 17 325 0.0 0.0 0.00 0.00 0.00 83 1012.2
20260503233303 17 325 0.0 0.0 0.00 0.00 0.00 83 1012.2
20260503233205 17 325 0.0 0.0 0.00 0.00 0.00 83 1012.2
20260503233104 17 325 0.0 0.0 0.00 0.00 0.00 83 1012.3
20260503233006 17 325 0.0 0.0 0.00 0.00 0.00 83 1012.3
20260503232904 17 325 0.0 0.0 0.00 0.00 0.00 83 1012.3
20260503232704 17 325 0.0 0.0 0.00 0.00 0.00 83 1012.3
20260503232506 17 325 0.0 0.0 0.00 0.00 0.00 83 1012.3
20260503232404 17 325 0.0 0.0 0.00 0.00 0.00 83 1012.3
20260503232305 17 325 0.0 0.0 0.00 0.00 0.00 83 1012.3
20260503232204 17 325 0.0 0.0 0.00 0.00 0.00 83 1012.4
20260503232103 17 325 0.0 0.0 0.00 0.00 0.00 83 1012.3
20260503231805 17 325 0.0 0.0 0.00 0.00 0.00 83 1012.3
20260503231604 17 325 0.0 0.0 0.00 0.00 0.00 83 1012.3
20260503231507 17 325 0.0 0.0 0.00 0.00 0.00 83 1012.3
20260503231406 17 325 0.0 0.0 0.00 0.00 0.00 83 1012.3
20260503231305 17 325 0.0 0.0 0.00 0.00 0.00 83 1012.3
20260503231104 17 325 0.0 3.2 0.00 0.00 0.00 83 1012.4
20260503231006 17 325 0.0 3.2 0.00 0.00 0.00 83 1012.3
20260503230904 17 325 1.6 3.2 0.00 0.00 0.00 83 1012.3
20260503230804 17 325 1.6 3.2 0.00 0.00 0.00 83 1012.3
20260503230704 17 325 1.6 4.8 0.00 0.00 0.00 83 1012.3
20260503230604 17 325 1.6 4.8 0.00 0.00 0.00 83 1012.3
20260503230505 17 325 1.6 4.8 0.00 0.00 0.00 83 1012.3
20260503230204 17 325 3.2 4.8 0.00 0.00 0.00 83 1012.2
20260503230107 17 325 3.2 4.8 0.00 0.00 0.00 83 1012.4
20260503230006 17 316 3.2 4.8 0.00 0.00 0.00 83 1012.4
20260503225905 17 307 3.2 4.8 0.00 0.00 0.00 83 1012.4
20260503225804 17 345 1.6 4.8 0.00 0.00 0.00 83 1012.3
20260503225604 17 325 1.6 4.8 0.00 0.00 0.00 83 1012.3
20260503225505 17 320 1.6 4.8 0.00 0.00 0.00 83 1012.3
20260503225305 17 325 1.6 4.8 0.00 0.00 0.00 83 1012.3
20260503225204 17 227 0.0 4.8 0.00 0.00 0.00 83 1012.4
20260503225105 17 227 0.0 4.8 0.00 0.00 0.00 83 1012.4
20260503225006 17 227 0.0 4.8 0.00 0.00 0.00 83 1012.4
20260503224805 17 50 0.0 3.2 0.00 0.00 0.00 83 1012.3
20260503224705 17 50 0.0 0.0 0.00 0.00 0.00 83 1012.4
20260503224607 17 50 0.0 0.0 0.00 0.00 0.00 83 1012.4
20260503224506 17 50 0.0 0.0 0.00 0.00 0.00 83 1012.3
20260503224405 17 50 0.0 0.0 0.00 0.00 0.00 83 1012.3
20260503224304 17 50 0.0 0.0 0.00 0.00 0.00 83 1012.3
20260503224205 17 50 0.0 0.0 0.00 0.00 0.00 83 1012.3
20260503224104 17 50 0.0 0.0 0.00 0.00 0.00 83 1012.3
20260503224006 17 50 0.0 0.0 0.00 0.00 0.00 83 1012.3
20260503223605 17 50 0.0 0.0 0.00 0.00 0.00 83 1012.4
20260503223506 17 50 0.0 0.0 0.00 0.00 0.00 83 1012.3
20260503223304 17 50 1.6 3.2 0.00 0.00 0.00 83 1012.3
20260503223105 17 50 1.6 4.8 0.00 0.00 0.00 82 1012.3
20260503223007 17 50 1.6 4.8 0.00 0.00 0.00 82 1012.3
20260503222904 17 50 1.6 4.8 0.00 0.00 0.00 82 1012.3
20260503222805 17 50 1.6 4.8 0.00 0.00 0.00 82 1012.3
20260503222705 17 50 1.6 4.8 0.00 0.00 0.00 82 1012.3
20260503222506 17 50 1.6 4.8 0.00 0.00 0.00 82 1012.3
20260503222404 17 50 1.6 4.8 0.00 0.00 0.00 82 1012.3
20260503222304 17 50 1.6 4.8 0.00 0.00 0.00 82 1012.3
20260503222205 17 50 1.6 4.8 0.00 0.00 0.00 82 1012.2
20260503222104 17 50 1.6 4.8 0.00 0.00 0.00 82 1012.3
20260503221905 17 50 1.6 4.8 0.00 0.00 0.00 82 1012.3
20260503221805 17 50 1.6 4.8 0.00 0.00 0.00 82 1012.2
20260503221704 17 50 1.6 9.7 0.00 0.00 0.00 82 1012.3
20260503221604 17 50 1.6 9.7 0.00 0.00 0.00 82 1012.3
20260503221505 17 50 1.6 9.7 0.00 0.00 0.00 82 1012.3
20260503221304 17 50 1.6 9.7 0.00 0.00 0.00 82 1012.3
20260503221205 17 50 1.6 9.7 0.00 0.00 0.00 82 1012.3
20260503221105 17 50 1.6 9.7 0.00 0.00 0.00 82 1012.2
20260503221006 17 50 1.6 9.7 0.00 0.00 0.00 82 1012.2
20260503220904 17 50 1.6 9.7 0.00 0.00 0.00 82 1012.2
20260503220805 17 61 1.6 9.7 0.00 0.00 0.00 82 1012.1
20260503220603 17 81 3.2 6.4 0.00 0.00 0.00 82 1012.2
20260503220506 17 81 3.2 6.4 0.00 0.00 0.00 82 1012.2
20260503220404 17 143 3.2 6.4 0.00 0.00 0.00 82 1012.2
20260503220306 17 143 3.2 6.4 0.00 0.00 0.00 82 1012.2
20260503220207 17 154 3.2 6.4 0.00 0.00 0.00 82 1012.2
20260503220107 17 154 3.2 6.4 0.00 0.00 0.00 82 1012.2
20260503220021 17 146 3.2 8.0 0.00 0.00 0.00 81 1012.1
20260503215908 17 83 3.2 8.0 0.00 0.00 0.00 81 1012.1
20260503215808 17 56 3.2 8.0 0.00 0.00 0.00 81 1012.3
20260503215706 17 36 3.2 8.0 0.00 0.00 0.00 81 1012.2
20260503215607 17 129 1.6 8.0 0.00 0.00 0.00 81 1012.2
20260503215509 17 83 1.6 6.4 0.00 0.00 0.00 81 1012.2
20260503215406 17 95 1.6 6.4 0.00 0.00 0.00 81 1012.3
20260503215306 17 81 1.6 4.8 0.00 0.00 0.00 81 1012.4
20260503215207 17 81 1.6 4.8 0.00 0.00 0.00 81 1012.4
20260503215106 17 81 1.6 4.8 0.00 0.00 0.00 81 1012.5
20260503215009 17 81 1.6 4.8 0.00 0.00 0.00 81 1012.5
20260503214907 17 81 1.6 4.8 0.00 0.00 0.00 81 1012.5
20260503214808 17 81 1.6 4.8 0.00 0.00 0.00 81 1012.5
20260503214707 17 81 1.6 4.8 0.00 0.00 0.00 81 1012.5
20260503214607 17 81 1.6 4.8 0.00 0.00 0.00 81 1012.5
20260503214509 17 81 1.6 4.8 0.00 0.00 0.00 81 1012.6
20260503214408 17 81 1.6 4.8 0.00 0.00 0.00 81 1012.6
20260503214308 17 81 0.0 3.2 0.00 0.00 0.00 81 1012.5
20260503214207 17 81 0.0 3.2 0.00 0.00 0.00 81 1012.5
20260503214107 17 81 0.0 3.2 0.00 0.00 0.00 81 1012.5
20260503214008 17 81 0.0 3.2 0.00 0.00 0.00 81 1012.5
20260503213907 17 81 0.0 3.2 0.00 0.00 0.00 81 1012.5
20260503213808 17 81 0.0 3.2 0.00 0.00 0.00 81 1012.4
20260503213508 17 81 1.6 3.2 0.00 0.00 0.00 81 1012.4
20260503213406 17 81 1.6 4.8 0.00 0.00 0.00 81 1012.5
20260503213307 17 81 1.6 4.8 0.00 0.00 0.00 81 1012.4
20260503213206 17 81 1.6 4.8 0.00 0.00 0.00 81 1012.5
20260503213106 17 81 1.6 4.8 0.00 0.00 0.00 81 1012.4
20260503213009 17 81 1.6 4.8 0.00 0.00 0.00 81 1012.4
20260503212908 17 81 1.6 4.8 0.00 0.00 0.00 81 1012.5
20260503212707 17 81 1.6 4.8 0.00 0.00 0.00 81 1012.5
20260503212608 17 81 1.6 4.8 0.00 0.00 0.00 81 1012.6
20260503212508 17 81 1.6 4.8 0.00 0.00 0.00 80 1012.6
20260503212407 17 81 1.6 4.8 0.00 0.00 0.00 80 1012.6
20260503212307 17 81 1.6 4.8 0.00 0.00 0.00 80 1012.7
20260503212107 17 81 1.6 4.8 0.00 0.00 0.00 80 1012.7
20260503212009 17 81 1.6 4.8 0.00 0.00 0.00 80 1012.7
20260503211909 17 81 1.6 4.8 0.00 0.00 0.00 80 1012.7
20260503211808 17 81 1.6 4.8 0.00 0.00 0.00 80 1012.7
20260503211706 17 81 1.6 4.8 0.00 0.00 0.00 80 1012.7
20260503211609 17 81 1.6 4.8 0.00 0.00 0.00 80 1012.7
20260503211509 17 81 1.6 4.8 0.00 0.00 0.00 80 1012.7
20260503211407 17 81 1.6 4.8 0.00 0.00 0.00 80 1012.7
20260503211206 17 81 0.0 4.8 0.00 0.00 0.00 80 1012.7
20260503211107 17 81 0.0 3.2 0.00 0.00 0.00 80 1012.7
20260503211008 17 81 0.0 3.2 0.00 0.00 0.00 80 1012.7
20260503210907 17 81 0.0 3.2 0.00 0.00 0.00 80 1012.7
20260503210707 17 81 1.6 3.2 0.00 0.00 0.00 80 1012.7
20260503210607 17 81 1.6 4.8 0.00 0.00 0.00 80 1012.8
20260503210508 17 81 1.6 6.4 0.00 0.00 0.00 80 1012.7
20260503210407 17 81 1.6 6.4 0.00 0.00 0.00 80 1012.6
20260503210308 17 81 1.6 6.4 0.00 0.00 0.00 80 1012.7
20260503210206 17 81 1.6 6.4 0.00 0.00 0.00 80 1012.7
20260503210107 17 81 1.6 6.4 0.00 0.00 0.00 80 1012.7
20260503210011 17 81 1.6 6.4 0.00 0.00 0.00 80 1012.6
20260503205906 17 81 1.6 6.4 0.00 0.00 0.00 80 1012.6
20260503205807 17 81 1.6 6.4 0.00 0.00 0.00 80 1012.5
20260503205705 17 100 1.6 6.4 0.00 0.00 0.00 80 1012.6
20260503205507 17 34 1.6 4.8 0.00 0.00 0.00 80 1012.5
20260503205406 17 34 1.6 4.8 0.00 0.00 0.00 80 1012.5
20260503205307 17 34 1.6 4.8 0.00 0.00 0.00 80 1012.5
20260503205206 17 72 1.6 4.8 0.00 0.00 0.00 80 1012.5
20260503205007 17 80 1.6 4.8 0.00 0.00 0.00 80 1012.5
20260503204806 17 80 0.0 4.8 0.00 0.00 0.00 80 1012.5
20260503204705 17 80 0.0 4.8 0.00 0.00 0.00 80 1012.5
20260503204606 17 80 1.6 4.8 0.00 0.00 0.00 80 1012.5
20260503204508 17 80 1.6 4.8 0.00 0.00 0.00 80 1012.5
20260503204406 17 80 1.6 4.8 0.00 0.00 0.00 80 1012.5
20260503204306 17 80 1.6 4.8 0.00 0.00 0.00 80 1012.5
20260503204206 17 80 1.6 4.8 0.00 0.00 0.00 80 1012.5
20260503204105 17 80 0.0 4.8 0.00 0.00 0.00 80 1012.5
20260503204009 17 80 1.6 4.8 0.00 0.00 0.00 80 1012.4
20260503203906 17 80 1.6 4.8 0.00 0.00 0.00 80 1012.4
20260503203806 17 80 1.6 4.8 0.00 0.00 0.00 80 1012.4
20260503203705 17 80 1.6 4.8 0.00 0.00 0.00 80 1012.3
20260503203507 17 80 1.6 4.8 0.00 0.00 0.00 80 1012.3
20260503203307 17 80 1.6 4.8 0.00 0.00 0.00 80 1012.3
20260503203106 17 80 1.6 4.8 0.00 0.00 0.00 80 1012.3
20260503203008 17 80 1.6 4.8 0.00 0.00 0.00 80 1012.4
20260503202906 17 80 1.6 4.8 0.00 0.00 0.00 81 1012.3
20260503202806 17 80 1.6 4.8 0.00 0.00 0.00 81 1012.3
20260503202705 17 54 1.6 4.8 0.00 0.00 0.00 80 1012.2
20260503202606 17 54 3.2 4.8 0.00 0.00 0.00 81 1012.2
20260503202507 17 54 3.2 4.8 0.00 0.00 0.00 80 1012.2
20260503202406 17 54 3.2 6.4 0.00 0.00 0.00 80 1012.2
20260503202306 17 54 1.6 6.4 0.00 0.00 0.00 81 1012.1
20260503202105 17 54 1.6 6.4 0.00 0.00 0.00 81 1012.1
20260503202009 17 54 1.6 6.4 0.00 0.00 0.00 80 1012.1
20260503201906 17 54 1.6 6.4 0.00 0.00 0.00 81 1012.1
20260503201707 17 54 1.6 6.4 0.00 0.00 0.00 80 1012.1
20260503201606 17 54 1.6 6.4 0.00 0.00 0.00 80 1012.0
20260503201507 17 104 1.6 4.8 0.00 0.00 0.00 81 1012.1
20260503201406 17 104 1.6 3.2 0.00 0.00 0.00 81 1012.0
20260503201305 17 104 1.6 4.8 0.00 0.00 0.00 81 1012.0
20260503201007 17 104 1.6 4.8 0.00 0.00 0.00 80 1012.0
20260503200906 17 104 1.6 4.8 0.00 0.00 0.00 80 1012.1
20260503200805 17 104 1.6 4.8 0.00 0.00 0.00 80 1012.0
20260503200706 17 104 1.6 4.8 0.00 0.00 0.00 80 1012.0
20260503200605 17 104 1.6 4.8 0.00 0.00 0.00 80 1012.0
20260503200507 17 8 1.6 4.8 0.00 0.00 0.00 80 1011.9
20260503200406 17 8 1.6 4.8 0.00 0.00 0.00 80 1012.0
20260503200306 17 104 1.6 4.8 0.00 0.00 0.00 80 1012.0
20260503200206 17 104 1.6 4.8 0.00 0.00 0.00 81 1012.0
20260503200105 17 104 1.6 4.8 0.00 0.00 0.00 81 1012.0
20260503200011 17 29 1.6 3.2 0.00 0.00 0.00 81 1012.0
20260503195907 17 29 1.6 3.2 0.00 0.00 0.00 81 1012.0
20260503195807 17 29 1.6 3.2 0.00 0.00 0.00 81 1011.9
20260503195707 17 29 1.6 3.2 0.00 0.00 0.00 80 1011.9
20260503195607 17 29 1.6 4.8 0.00 0.00 0.00 81 1011.9
20260503195510 17 29 1.6 4.8 0.00 0.00 0.00 81 1011.8
20260503195406 17 29 1.6 8.0 0.00 0.00 0.00 81 1011.8
20260503195308 17 29 1.6 8.0 0.00 0.00 0.00 81 1011.8
20260503195207 17 29 3.2 8.0 0.00 0.00 0.00 81 1011.7
20260503195107 17 6 3.2 8.0 0.00 0.00 0.00 81 1011.7
20260503194908 17 128 3.2 8.0 0.00 0.00 0.00 81 1011.6
20260503194807 17 128 3.2 8.0 0.00 0.00 0.00 81 1011.6
20260503194707 17 105 3.2 8.0 0.00 0.00 0.00 81 1011.5
20260503194607 17 83 3.2 8.0 0.00 0.00 0.00 81 1011.5
20260503194509 17 123 3.2 6.4 0.00 0.00 0.00 81 1011.5
20260503194308 17 59 1.6 6.4 0.00 0.00 0.00 81 1011.4
20260503194207 17 53 1.6 4.8 0.00 0.00 0.00 81 1011.4
20260503194108 17 108 1.6 4.8 0.00 0.00 0.00 81 1011.4
20260503194009 17 178 1.6 11.3 0.00 0.00 0.00 81 1011.4
20260503193807 17 178 3.2 11.3 0.00 0.00 0.00 81 1011.3
20260503193709 17 49 3.2 11.3 0.00 0.00 0.00 81 1011.3
20260503193608 17 71 3.2 11.3 0.00 0.00 0.00 81 1011.3
20260503193509 17 130 3.2 11.3 0.00 0.00 0.00 81 1011.2
20260503193406 17 110 3.2 11.3 0.00 0.00 0.00 81 1011.2
20260503193307 17 110 3.2 11.3 0.00 0.00 0.00 81 1011.2
20260503193207 17 111 3.2 11.3 0.00 0.00 0.00 81 1011.2
20260503193106 17 123 3.2 12.9 0.00 0.00 0.00 81 1011.2
20260503192907 17 58 3.2 14.5 0.00 0.00 0.00 81 1011.2
20260503192707 17 101 3.2 14.5 0.00 0.00 0.00 81 1011.1
20260503192508 17 21 3.2 14.5 0.00 0.00 0.00 81 1011.1
20260503192408 17 271 3.2 14.5 0.00 0.00 0.00 81 1011.1
20260503192307 17 152 3.2 14.5 0.00 0.00 0.00 81 1011.2
20260503192207 17 59 3.2 14.5 0.00 0.00 0.00 81 1011.2
20260503192108 17 53 1.6 6.4 0.00 0.00 0.00 81 1011.1
20260503191907 17 85 1.6 6.4 0.00 0.00 0.00 81 1011.2
20260503191809 17 124 1.6 4.8 0.00 0.00 0.00 81 1011.2
20260503191708 17 124 1.6 9.7 0.00 0.00 0.00 81 1011.3
20260503191509 17 48 3.2 11.3 0.00 0.00 0.00 81 1011.2
20260503191407 17 48 3.2 11.3 0.00 0.00 0.00 81 1011.3
20260503191306 17 156 4.8 11.3 0.00 0.00 0.00 81 1011.4
20260503191207 17 93 4.8 11.3 0.00 0.00 0.00 81 1011.4
20260503191109 17 123 4.8 11.3 0.00 0.00 0.00 81 1011.4
20260503191008 17 123 3.2 11.3 0.00 0.00 0.00 81 1011.4
20260503190907 17 89 3.2 11.3 0.00 0.00 0.00 81 1011.4
20260503190807 17 98 3.2 11.3 0.00 0.00 0.00 81 1011.4
20260503190708 17 89 3.2 11.3 0.00 0.00 0.00 81 1011.4
20260503190607 17 108 3.2 9.7 0.00 0.00 0.00 81 1011.4
20260503190508 17 91 1.6 9.7 0.00 0.00 0.00 81 1011.5
20260503190407 17 91 1.6 9.7 0.00 0.00 0.00 81 1011.5
20260503190308 17 96 0.0 9.7 0.00 0.00 0.00 81 1011.5
20260503190207 17 100 0.0 4.8 0.00 0.00 0.00 81 1011.6
20260503190106 17 139 0.0 3.2 0.00 0.00 0.00 81 1011.5
20260503190011 17 139 0.0 3.2 0.00 0.00 0.00 81 1011.6
20260503185906 17 51 0.0 1.6 0.00 0.00 0.00 81 1011.6
20260503185808 17 51 0.0 1.6 0.00 0.00 0.00 81 1011.7
20260503185707 17 51 0.0 1.6 0.00 0.00 0.00 81 1011.7
20260503185608 17 51 0.0 1.6 0.00 0.00 0.00 81 1011.7
20260503185509 17 51 0.0 1.6 0.00 0.00 0.00 81 1011.7
20260503185407 17 51 0.0 1.6 0.00 0.00 0.00 81 1011.8
20260503185310 17 51 0.0 1.6 0.00 0.00 0.00 81 1011.8
20260503185207 17 51 1.6 3.2 0.00 0.00 0.00 81 1011.7
20260503185106 17 51 1.6 4.8 0.00 0.00 0.00 81 1011.8
20260503185009 17 51 1.6 6.4 0.00 0.00 0.00 81 1011.7
20260503184907 17 51 1.6 6.4 0.00 0.00 0.00 81 1011.7
20260503184707 17 51 1.6 6.4 0.00 0.00 0.00 82 1011.7
20260503184607 17 51 3.2 6.4 0.00 0.00 0.00 82 1011.6
20260503184510 17 51 3.2 11.3 0.00 0.00 0.00 82 1011.6
20260503184406 17 51 3.2 11.3 0.00 0.00 0.00 82 1011.6
20260503184308 17 51 3.2 11.3 0.00 0.00 0.00 82 1011.6
20260503184207 17 93 4.8 11.3 0.00 0.00 0.00 82 1011.5
20260503184107 17 79 4.8 11.3 0.00 0.00 0.00 82 1011.4
20260503184009 17 79 4.8 11.3 0.00 0.00 0.00 82 1011.4
20260503183908 17 79 4.8 11.3 0.00 0.00 0.00 82 1011.5
20260503183807 17 86 4.8 11.3 0.00 0.00 0.00 83 1011.4
20260503183707 17 100 4.8 11.3 0.00 0.00 0.00 83 1011.4
20260503183607 17 98 3.2 11.3 0.00 0.00 0.00 83 1011.4
20260503183509 17 59 4.8 11.3 0.00 0.00 0.00 83 1011.3
20260503183406 17 111 4.8 11.3 0.00 0.00 0.00 83 1011.2
20260503183207 17 84 4.8 11.3 0.00 0.00 0.00 83 1011.2
20260503183107 17 84 3.2 11.3 0.00 0.00 0.00 83 1011.3
20260503182906 17 75 3.2 11.3 0.00 0.00 0.00 83 1011.4
20260503182707 17 86 3.2 11.3 0.00 0.00 0.00 83 1011.4
20260503182509 17 110 3.2 11.3 0.00 0.00 0.00 83 1011.4
20260503182408 17 96 3.2 8.0 0.00 0.00 0.00 83 1011.4
20260503182308 17 104 3.2 8.0 0.00 0.00 0.00 83 1011.4
20260503182107 17 108 3.2 9.7 0.00 0.00 0.00 83 1011.4
20260503182008 17 108 3.2 9.7 0.00 0.00 0.00 83 1011.4
20260503181707 17 131 3.2 9.7 0.00 0.00 0.00 82 1011.4
20260503181607 17 71 3.2 9.7 0.00 0.00 0.00 82 1011.3
20260503181510 17 109 3.2 9.7 0.00 0.00 0.00 82 1011.3
20260503181408 17 80 3.2 11.3 0.00 0.00 0.00 83 1011.3
20260503181307 17 63 3.2 12.9 0.00 0.00 0.00 83 1011.3
20260503181208 17 105 3.2 12.9 0.00 0.00 0.00 82 1011.3
20260503181108 17 66 3.2 12.9 0.00 0.00 0.00 83 1011.3
20260503181009 17 110 3.2 12.9 0.00 0.00 0.00 83 1011.3
20260503180908 17 5 3.2 12.9 0.00 0.00 0.00 83 1011.3
20260503180607 17 114 3.2 12.9 0.00 0.00 0.00 82 1011.2
20260503180408 17 101 3.2 12.9 0.00 0.00 0.00 82 1011.1
20260503180307 18 79 3.2 11.3 0.00 0.00 0.00 82 1011.1
20260503180208 18 98 3.2 11.3 0.00 0.00 0.00 83 1011.1
20260503180108 18 83 3.2 11.3 0.00 0.00 0.00 82 1011.0
20260503180009 18 84 3.2 11.3 0.00 0.00 0.00 82 1011.1
20260503175905 18 124 1.6 9.7 0.00 0.00 0.00 83 1011.1
20260503175707 18 91 1.6 9.7 0.00 0.00 0.00 83 1011.1
20260503175406 18 82 1.6 9.7 0.00 0.00 0.00 83 1011.1
20260503175306 18 47 1.6 9.7 0.00 0.00 0.00 83 1011.2
20260503175209 18 68 1.6 6.4 0.00 0.00 0.00 83 1011.2
20260503175105 18 104 1.6 11.3 0.00 0.00 0.00 83 1011.2
20260503175008 18 1 3.2 11.3 0.00 0.00 0.00 83 1011.3
20260503174905 17 1 3.2 11.3 0.00 0.00 0.00 83 1011.3
20260503174807 17 1 4.8 11.3 0.00 0.00 0.00 83 1011.3
20260503174606 17 129 4.8 12.9 0.00 0.00 0.00 83 1011.2
20260503174508 17 54 4.8 12.9 0.00 0.00 0.00 83 1011.1
20260503174307 17 153 6.4 12.9 0.00 0.00 0.00 83 1011.0
20260503174206 17 59 6.4 12.9 0.00 0.00 0.00 83 1011.1
20260503174105 17 82 6.4 12.9 0.00 0.00 0.00 83 1011.1
20260503174008 17 96 6.4 12.9 0.00 0.00 0.00 83 1011.1
20260503173905 17 83 4.8 12.9 0.00 0.00 0.00 83 1011.2
20260503173807 17 93 4.8 12.9 0.00 0.00 0.00 83 1011.2
20260503173607 17 58 6.4 12.9 0.00 0.00 0.00 83 1011.2
20260503173508 17 75 6.4 16.1 0.00 0.00 0.00 83 1011.2
20260503173307 17 111 6.4 16.1 0.00 0.00 0.00 83 1011.2
20260503173207 17 112 6.4 16.1 0.00 0.00 0.00 83 1011.2
20260503173107 17 59 6.4 16.1 0.00 0.00 0.00 83 1011.1
20260503173008 18 56 6.4 16.1 0.00 0.00 0.00 83 1011.1
20260503172906 17 44 6.4 16.1 0.00 0.00 0.00 83 1011.1
20260503172808 17 59 6.4 16.1 0.00 0.00 0.00 83 1011.1
20260503172706 17 50 6.4 16.1 0.00 0.00 0.00 83 1011.1
20260503172607 18 75 6.4 14.5 0.00 0.00 0.00 83 1011.2
20260503172507 18 86 6.4 12.9 0.00 0.00 0.00 83 1011.3
20260503172405 18 64 8.0 14.5 0.00 0.00 0.00 83 1011.3
20260503172305 18 33 8.0 14.5 0.00 0.00 0.00 83 1011.3
20260503172205 18 58 8.0 14.5 0.00 0.00 0.00 83 1011.3
20260503172105 18 75 8.0 14.5 0.00 0.00 0.00 83 1011.4
20260503172008 18 73 6.4 14.5 0.00 0.00 0.00 83 1011.3
20260503171805 18 72 8.0 14.5 0.00 0.00 0.00 83 1011.4
20260503171705 18 59 8.0 14.5 0.00 0.00 0.00 82 1011.5
20260503171606 17 70 6.4 14.5 0.00 0.00 0.00 82 1011.4
20260503171507 17 71 6.4 12.9 0.00 0.00 0.00 82 1011.5
20260503171405 18 56 8.0 12.9 0.00 0.00 0.00 82 1011.5
20260503171305 17 84 6.4 12.9 0.00 0.00 0.00 83 1011.5
20260503171205 17 48 6.4 12.9 0.00 0.00 0.00 82 1011.5
20260503171105 17 87 8.0 12.9 0.00 0.00 0.00 82 1011.5
20260503171009 17 76 8.0 12.9 0.00 0.00 0.00 82 1011.5
20260503170707 17 75 8.0 12.9 0.00 0.00 0.00 82 1011.6
20260503170508 18 62 6.4 12.9 0.00 0.00 0.00 82 1011.5
20260503170407 18 70 6.4 12.9 0.00 0.00 0.00 82 1011.5
20260503170305 18 68 6.4 12.9 0.00 0.00 0.00 82 1011.6
20260503170206 18 79 6.4 12.9 0.00 0.00 0.00 82 1011.5
20260503160105 18 63 6.4 14.5 0.00 0.00 0.00 83 1011.3
20260503151009 18 63 12.9 17.7 0.00 0.00 0.00 82 1011.7
20260503150905 18 79 11.3 17.7 0.00 0.00 0.00 82 1011.7
20260503150805 18 41 12.9 17.7 0.00 0.00 0.00 82 1011.7
20260503150705 18 71 11.3 17.7 0.00 0.00 0.00 82 1011.7
20260503150607 18 69 11.3 17.7 0.00 0.00 0.00 82 1011.7
20260503150509 18 65 11.3 17.7 0.00 0.00 0.00 82 1011.7
20260503150406 18 91 11.3 17.7 0.00 0.00 0.00 82 1011.7
20260503150306 18 87 11.3 17.7 0.00 0.00 0.00 81 1011.7
20260503150205 18 47 11.3 17.7 0.00 0.00 0.00 81 1011.8
20260503140305 17 59 9.7 16.1 0.00 0.00 0.00 82 1012.3
20260503140205 17 61 9.7 16.1 0.00 0.00 0.00 82 1012.4
20260503140106 17 87 8.0 16.1 0.00 0.00 0.00 82 1012.4
20260503131407 18 64 14.5 20.9 0.00 0.00 0.00 84 1012.5
20260503131305 18 42 14.5 20.9 0.00 0.00 0.00 84 1012.5
20260503131205 18 60 14.5 20.9 0.00 0.00 0.00 84 1012.4
20260503131106 18 70 14.5 20.9 0.00 0.00 0.00 84 1012.4
20260503131009 18 66 14.5 20.9 0.00 0.00 0.00 84 1012.4
20260503130907 18 73 12.9 20.9 0.00 0.00 0.00 83 1012.5
20260503130805 18 56 12.9 20.9 0.00 0.00 0.00 83 1012.5
20260503130707 18 45 12.9 20.9 0.00 0.00 0.00 83 1012.4
20260503130605 18 58 12.9 20.9 0.00 0.00 0.00 82 1012.4
20260503130508 18 42 12.9 19.3 0.00 0.00 0.00 82 1012.5
20260503130407 18 57 12.9 20.9 0.00 0.00 0.00 83 1012.5
20260503130306 18 37 12.9 20.9 0.00 0.00 0.00 83 1012.4
20260503130205 18 339 12.9 20.9 0.00 0.00 0.00 83 1012.5
20260503130106 18 67 12.9 20.9 0.00 0.00 0.00 83 1012.5
20260503120108 18 53 12.9 19.3 0.00 0.00 0.00 80 1012.8
20260503110806 18 57 9.7 16.1 0.00 0.00 0.00 83 1013.2
20260503110705 18 48 8.0 16.1 0.00 0.00 0.00 83 1013.3
20260503110605 18 81 8.0 16.1 0.00 0.00 0.00 83 1013.3
20260503110509 18 54 8.0 16.1 0.00 0.00 0.00 83 1013.4
20260503110405 18 60 6.4 16.1 0.00 0.00 0.00 83 1013.4
20260503110205 18 54 6.4 16.1 0.00 0.00 0.00 83 1013.3
20260503110105 18 56 6.4 16.1 0.00 0.00 0.00 83 1013.4
20260503100207 18 80 6.4 14.5 0.00 0.00 0.00 80 1014.1
20260503100106 18 64 6.4 14.5 0.00 0.00 0.00 80 1014.1
20260503090507 17 114 6.4 14.5 0.00 0.00 0.00 82 1014.1
20260503090406 17 117 6.4 14.5 0.00 0.00 0.00 82 1014.2
20260503090304 17 83 6.4 14.5 0.00 0.00 0.00 82 1014.2
20260503090204 17 95 6.4 14.5 0.00 0.00 0.00 82 1014.1
20260503090105 17 110 6.4 14.5 0.00 0.00 0.00 82 1014.2
20260503081605 17 123 3.2 9.7 0.00 0.00 0.00 83 1014.3
20260503081508 17 135 3.2 9.7 0.00 0.00 0.00 83 1014.3
20260503081406 17 208 3.2 9.7 0.00 0.00 0.00 83 1014.3
20260503081206 17 169 3.2 9.7 0.00 0.00 0.00 83 1014.1
20260503081108 17 131 3.2 9.7 0.00 0.00 0.00 83 1014.1
20260503081009 17 165 3.2 9.7 0.00 0.00 0.00 83 1014.1
20260503080906 17 117 3.2 9.7 0.00 0.00 0.00 83 1014.1
20260503080806 17 137 1.6 11.3 0.00 0.00 0.00 83 1014.2
20260503080706 17 71 1.6 9.7 0.00 0.00 0.00 83 1014.2
20260503080607 17 51 3.2 9.7 0.00 0.00 0.00 83 1014.2
20260503080507 17 54 3.2 14.5 0.00 0.00 0.00 83 1014.1
20260503080405 17 64 3.2 14.5 0.00 0.00 0.00 83 1014.1
20260503080206 17 41 3.2 14.5 0.00 0.00 0.00 84 1014.1
20260503080106 17 41 3.2 14.5 0.00 0.00 0.00 84 1014.0
20260503072906 17 185 1.6 8.0 0.00 0.00 0.00 84 1014.1
20260503072805 17 113 1.6 8.0 0.00 0.00 0.00 84 1014.1
20260503072704 17 92 1.6 6.4 0.00 0.00 0.00 84 1014.0
20260503072604 17 49 3.2 4.8 0.00 0.00 0.00 84 1014.0
20260503072506 17 141 3.2 9.7 0.00 0.00 0.00 84 1014.0
20260503072406 17 93 3.2 11.3 0.00 0.00 0.00 84 1014.0
20260503072205 17 123 3.2 11.3 0.00 0.00 0.00 84 1013.9
20260503072105 17 36 4.8 11.3 0.00 0.00 0.00 84 1013.9
20260503072007 17 36 4.8 11.3 0.00 0.00 0.00 84 1013.9
20260503071905 17 36 4.8 11.3 0.00 0.00 0.00 84 1013.8
20260503071807 17 36 4.8 11.3 0.00 0.00 0.00 84 1013.8
20260503071705 17 48 4.8 11.3 0.00 0.00 0.00 84 1013.8
20260503071506 17 104 4.8 11.3 0.00 0.00 0.00 84 1013.8
20260503071305 17 97 3.2 11.3 0.00 0.00 0.00 84 1013.8
20260503071205 17 94 3.2 11.3 0.00 0.00 0.00 84 1013.8
20260503071107 17 104 3.2 11.3 0.00 0.00 0.00 84 1013.8
20260503071008 17 90 3.2 11.3 0.00 0.00 0.00 84 1013.7
20260503070905 17 200 3.2 11.3 0.00 0.00 0.00 84 1013.7
20260503070806 17 134 1.6 11.3 0.00 0.00 0.00 84 1013.8
20260503070704 17 349 3.2 11.3 0.00 0.00 0.00 84 1013.7
20260503070605 17 164 3.2 11.3 0.00 0.00 0.00 84 1013.6
20260503070405 17 56 3.2 11.3 0.00 0.00 0.00 84 1013.7
20260503070304 17 48 3.2 11.3 0.00 0.00 0.00 84 1013.7
20260503070205 17 114 3.2 12.9 0.00 0.00 0.00 84 1013.7
20260503070104 17 130 4.8 12.9 0.00 0.00 0.00 84 1013.7